Printer-friendly version
Follow the MPC on Twitter Follow the MPC on Facebook The MPC blog
Minor Planet Center

MPEC 2005-O40 : 2005 OX1

The following Minor Planet Electronic Circular may be linked-to from your own Web pages, but must not otherwise be redistributed electronically.

A form allowing access to any MPEC is at the bottom of this page.


Read MPEC 2005-O39 Read MPEC 2005-O41


M.P.E.C. 2005-O40                                Issued 2005 July 29, 12:27 UT

     The Minor Planet Electronic Circulars contain information on unusual
         minor planets and routine data on comets.  They are published
   on behalf of Commission 20 of the International Astronomical Union by the
          Minor Planet Center, Smithsonian Astrophysical Observatory,
                          Cambridge, MA 02138, U.S.A.

                  Supported in part by the Brinson Foundation
             Prepared using the Tamkin Foundation Computer Network

                              MPC@CFA.HARVARD.EDU
          URL http://cfa-www.harvard.edu/iau/mpc.html  ISSN 1523-6714

                                   2005 OX1

Observations:
     K05O01X* C2005 07 27.56201 19 46 59.12 -51 34 21.0          18.8 V EO040E12
     K05O01X  C2005 07 27.57071 19 47 03.66 -51 34 54.9          19.0 V EO040E12
     K05O01X  C2005 07 27.57938 19 47 08.34 -51 35 28.7          18.9 V EO040E12
     K05O01X  C2005 07 27.65238 19 47 47.70 -51 40 11.1          19.0 V EO040E12
     K05O01X  C2005 07 27.66252 19 47 53.12 -51 40 50.1          19.1 V EO040E12
     K05O01X  C2005 07 27.67270 19 47 58.72 -51 41 28.2          19.2 V EO040E12
     K05O01X  C2005 07 27.68287 19 48 04.30 -51 42 07.0          19.5 V EO040E12
     K05O01X  C2005 07 27.69571 19 48 11.38 -51 42 54.3          18.9 V EO040E12
     K05O01X  C2005 07 27.71881 19 48 24.30 -51 44 19.1          19.1 V EO040E12
     K05O01X  C2005 07 27.74669 19 48 39.96 -51 46 01.4                 EO040E12
     K05O01X  C2005 07 27.74869 19 48 41.13 -51 46 08.7          19.5 V EO040E12
     K05O01X  C2005 07 27.75066 19 48 42.38 -51 46 16.2          19.5 V EO040E12
     K05O01X  C2005 07 28.59644 19 57 20.84 -52 41 29.2          19.5 V EO040E12
     K05O01X  C2005 07 28.59708 19 57 21.21 -52 41 33.8          20.0 V EO040E12
     K05O01X  C2005 07 28.59774 19 57 21.69 -52 41 36.0          19.9 V EO040E12
     K05O01X  C2005 07 28.59838 19 57 21.97 -52 41 38.7          19.5 V EO040E12
     K05O01X  C2005 07 29.47898 20 06 55.24 -53 35 55.3          19.2 V EO040E12
     K05O01X  C2005 07 29.48117 20 06 56.62 -53 36 01.9          19.2 V EO040E12

Observer details:
E12 Siding Spring Survey.  Observer G. J. Garradd.  Measurers E. C. Beshore,
    C. M. Casey, E. J. Christensen, G. J. Garradd, A. D. Grauer, R. E. Hill,
    S. M. Larson, R. H. McNaught.  0.5-m Uppsala Schmidt + CCD.

Orbital elements:
2005 OX1
Epoch 2005 July 29.0 TT = JDT 2453580.5                 MPC
M 355.19973              (2000.0)            P               Q
n   0.30680365     Peri.  226.16597     +0.77649613     +0.62176806
a   2.1771868      Node    95.12147     -0.54465685     +0.74389130
e   0.4996619      Incl.    5.89325     -0.31686381     +0.24501064
P   3.21           H   22.6           G   0.15
From 18 observations 2005 July 27-29.

Ephemeris:
2005 OX1                 a,e,i = 2.18, 0.50, 6                   q = 1.0893
Date    TT    R. A. (2000) Decl.     Delta      r     Elong.  Phase     V
2005 07 29    20 01.63   -53 06.3    0.106    1.104   145.1    31.7    19.3
2005 08 08    22 17.18   -58 36.5    0.104    1.091   135.9    40.3    19.5
2005 08 18    00 16.14   -53 21.6    0.115    1.091   130.4    44.9    19.8
2005 08 28    01 13.03   -44 38.7    0.135    1.102   130.0    44.6    20.2
2005 09 07    01 35.15   -36 49.5    0.161    1.125   133.6    40.4    20.5
2005 09 17    01 41.02   -30 17.2    0.193    1.159   139.7    34.1    20.8
2005 09 27    01 39.11   -24 41.7    0.231    1.202   146.7    27.3    21.0
2005 10 07    01 33.94   -19 44.2    0.277    1.252   152.7    21.5    21.3
2005 10 17    01 28.72   -15 14.6    0.334    1.308   155.6    18.4    21.7

Timothy B. Spahr             (C) Copyright 2005 MPC           M.P.E.C. 2005-O40

Read MPEC 2005-O39 Read MPEC 2005-O41


MPEC number:

Enter an MPEC number in one of the following forms:

  • 1997-B01 (the full form)
  • J97B01 (the packed version of the full form)
  • B01 (the abbreviated form)

Valid HTML 4.01!